Rochelle, IL

12:20 PM CST on November 12, 2019 (GMT -0600)
Rochelle

Weather History for KRPJ - September, 2019

Change the Weather History Date:

Sunday, September 8, 2019

  Actual Average (KRFD) Record (KRFD)
Temperature  
Mean Temperature 60 °F -  
Max Temperature 64 °F 78 °F 101 °F (1922)
Min Temperature 58 °F 55 °F 37 °F (1986)
Degree Days  
Heating Degree Days 4    
Growing Degree Days 10 (Base 50)    
Moisture  
Dew Point 59 °F    
Average Humidity 92    
Maximum Humidity 100    
Minimum Humidity 77    
Precipitation  
Precipitation 0.14 in - - ()
Sea Level Pressure  
Sea Level Pressure 30.11 in    
Wind  
Wind Speed 6 mph ()    
Max Wind Speed 16 mph    
Max Gust Speed 21 mph    
Visibility 8.8 miles    
Events Rain    
Averages and records for this station are not official NWS values.
T = Trace of Precipitation, MM = Missing Value Source: Averaged Metar Reports

Daily Weather History Graph

Daily Weather History Graph

Search for Another Location

Airport or City:

Astronomy

Sep. 08, 2019 Rise Set
Actual Time 6:29 AM CDT 7:18 PM CDT
Civil Twilight 6:00 AM CDT 7:46 PM CDT
Nautical Twilight 5:27 AM CDT 8:19 PM CDT
Astronomical Twilight 4:52 AM CDT 8:54 PM CDT
Moon 4:31 PM CDT (9/8) 1:03 AM CDT (9/8)
Length of Visible Light 13h 45m
Length of Day
12h 49m
Waxing Gibbous, 75% of the Moon is Illuminated
Sep 8
Waxing Gibbous
Sep 13
Full
Sep 21
Last Quarter
Sep 28
New
Oct 5
First Quarter

Hourly Weather History & Observations

Time (CDT) Temp. Dew Point Humidity Pressure Visibility Wind Dir Wind Speed Gust Speed Precip Events Conditions
12:15 AM 62.8 °F 59.4 °F 89% 30.06 in 10.0 mi ENE 5.8 mph - N/A   Overcast
12:35 AM 62.6 °F 59.9 °F 91% 30.05 in 10.0 mi NE 5.8 mph - N/A   Overcast
12:55 AM 62.6 °F 60.3 °F 92% 30.06 in 10.0 mi NE 4.6 mph - N/A   Overcast
1:15 AM 62.1 °F 60.3 °F 94% 30.06 in 10.0 mi NE 5.8 mph - N/A   Drizzle
1:35 AM 61.9 °F 61.0 °F 97% 30.06 in 10.0 mi NNE 4.6 mph - N/A   Drizzle
1:55 AM 61.9 °F 61.2 °F 97% 30.07 in 10.0 mi NE 3.5 mph - N/A   Light Drizzle
2:15 AM 62.2 °F 61.7 °F 98% 30.07 in 10.0 mi ENE 6.9 mph - N/A   Light Drizzle
2:35 AM 62.6 °F 60.4 °F 93% 30.07 in 10.0 mi NE 9.2 mph - N/A   Overcast
2:55 AM 62.6 °F 59.2 °F 89% 30.06 in 10.0 mi ENE 6.9 mph - N/A   Overcast
3:15 AM 62.2 °F 60.3 °F 93% 30.06 in 10.0 mi East 5.8 mph - N/A   Overcast
3:35 AM 62.6 °F 59.5 °F 90% 30.06 in 10.0 mi Calm Calm - N/A   Overcast
3:55 AM 61.7 °F 59.9 °F 94% 30.07 in 10.0 mi Calm Calm - N/A   Overcast
4:15 AM 61.3 °F 60.4 °F 97% 30.07 in 10.0 mi Calm Calm - N/A   Overcast
4:35 AM 61.9 °F 60.4 °F 95% 30.07 in 10.0 mi Calm Calm - N/A   Overcast
4:55 AM 61.7 °F 59.9 °F 94% 30.09 in 10.0 mi Calm Calm - N/A   Overcast
5:15 AM 61.9 °F 60.4 °F 95% 30.09 in 10.0 mi Calm Calm - N/A   Overcast
5:35 AM 61.9 °F 60.4 °F 95% 30.10 in 10.0 mi Calm Calm - N/A   Overcast
5:55 AM 61.2 °F 61.2 °F 100% 30.11 in 3.0 mi Calm Calm - N/A Rain Rain
6:15 AM 60.8 °F 60.8 °F 100% 30.10 in 4.0 mi SE 4.6 mph - 0.03 in Rain Rain
6:35 AM 59.5 °F 59.5 °F 100% 30.09 in 4.0 mi SE 6.9 mph - 0.05 in Rain Light Rain
6:55 AM 59.2 °F 59.2 °F 100% 30.08 in 5.0 mi ESE 8.1 mph - 0.05 in Rain Rain
7:15 AM 59.0 °F 59.0 °F 100% 30.07 in 4.0 mi ESE 10.4 mph - 0.01 in Rain Rain
7:35 AM 59.2 °F 59.2 °F 100% 30.09 in 5.0 mi ENE 6.9 mph - 0.04 in Rain Rain
7:55 AM 59.5 °F 59.4 °F 99% 30.10 in 5.0 mi ENE 5.8 mph - 0.05 in Rain Rain
8:15 AM 59.5 °F 59.5 °F 100% 30.10 in 5.0 mi ENE 6.9 mph - 0.01 in Rain Rain
8:35 AM 59.7 °F 59.7 °F 100% 30.10 in 7.0 mi East 5.8 mph - 0.01 in   Light Drizzle
8:55 AM 60.1 °F 60.1 °F 100% 30.10 in 7.0 mi East 4.6 mph - 0.01 in   Drizzle
9:15 AM 60.6 °F 60.6 °F 100% 30.11 in 10.0 mi East 3.5 mph - N/A   Overcast
9:35 AM 60.3 °F 60.3 °F 100% 30.12 in 10.0 mi ESE 4.6 mph - N/A Rain Light Rain
9:55 AM 60.1 °F 60.1 °F 100% 30.13 in 7.0 mi SE 5.8 mph - N/A   Overcast
10:15 AM 59.4 °F 59.4 °F 100% 30.13 in 3.0 mi SE 5.8 mph - 0.01 in   Drizzle
10:35 AM 59.2 °F 59.2 °F 100% 30.14 in 1.8 mi SE 5.8 mph - 0.01 in   Heavy Drizzle
10:55 AM 59.2 °F 59.2 °F 100% 30.14 in 2.0 mi ESE 3.5 mph - 0.03 in Rain Rain
11:15 AM 59.7 °F 59.7 °F 100% 30.13 in 4.0 mi ESE 6.9 mph - N/A   Light Drizzle
11:35 AM 60.6 °F 60.6 °F 100% 30.13 in 5.0 mi East 6.9 mph - N/A   Overcast
11:55 AM 61.0 °F 60.8 °F 99% 30.13 in 10.0 mi East 9.2 mph - N/A   Overcast
12:15 PM 61.3 °F 60.1 °F 96% 30.13 in 10.0 mi ESE 10.4 mph - N/A   Overcast
12:35 PM 61.9 °F 60.4 °F 95% 30.14 in 10.0 mi East 9.2 mph - N/A   Overcast
12:55 PM 61.5 °F 59.9 °F 94% 30.14 in 10.0 mi ESE 9.2 mph - N/A   Overcast
1:15 PM 61.2 °F 59.7 °F 95% 30.13 in 10.0 mi ESE 10.4 mph - N/A   Overcast
1:35 PM 61.5 °F 59.4 °F 93% 30.13 in 10.0 mi East 12.7 mph 17.3 mph N/A   Overcast
1:55 PM 60.8 °F 58.5 °F 92% 30.13 in 10.0 mi ESE 12.7 mph - N/A   Overcast
2:15 PM 61.2 °F 58.5 °F 91% 30.12 in 10.0 mi East 11.5 mph 18.4 mph N/A   Overcast
2:35 PM 62.2 °F 59.2 °F 90% 30.12 in 10.0 mi East 12.7 mph - N/A   Overcast
2:55 PM 63.9 °F 59.5 °F 86% 30.11 in 10.0 mi East 16.1 mph 20.7 mph N/A   Overcast
3:15 PM 63.7 °F 58.6 °F 84% 30.11 in 10.0 mi East 16.1 mph - N/A   Overcast
3:35 PM 63.7 °F 58.5 °F 83% 30.11 in 10.0 mi East 11.5 mph - N/A   Overcast
3:55 PM 63.9 °F 58.5 °F 83% 30.11 in 10.0 mi East 12.7 mph - N/A   Overcast
4:15 PM 63.5 °F 58.1 °F 83% 30.10 in 10.0 mi East 11.5 mph - N/A   Overcast
4:35 PM 63.5 °F 58.1 °F 83% 30.10 in 10.0 mi East 10.4 mph - N/A   Overcast
4:55 PM 63.9 °F 57.9 °F 81% 30.10 in 10.0 mi East 10.4 mph - N/A   Overcast
5:15 PM 63.9 °F 57.6 °F 80% 30.10 in 10.0 mi East 12.7 mph 18.4 mph N/A   Overcast
5:35 PM 63.5 °F 56.3 °F 77% 30.10 in 10.0 mi East 12.7 mph - N/A   Overcast
5:55 PM 63.1 °F 57.2 °F 81% 30.11 in 10.0 mi East 8.1 mph - N/A   Overcast
6:15 PM 63.1 °F 56.8 °F 80% 30.12 in 10.0 mi ESE 6.9 mph - N/A   Overcast
6:35 PM 62.6 °F 56.5 °F 80% 30.13 in 10.0 mi ESE 8.1 mph - N/A   Overcast
6:55 PM 62.1 °F 56.8 °F 83% 30.13 in 10.0 mi ESE 6.9 mph - N/A   Overcast
7:15 PM 61.7 °F 56.5 °F 83% 30.13 in 10.0 mi East 6.9 mph - N/A   Overcast
7:35 PM 61.2 °F 56.3 °F 84% 30.14 in 10.0 mi East 5.8 mph - N/A   Overcast
7:55 PM 60.4 °F 56.5 °F 87% 30.14 in 10.0 mi East 4.6 mph - N/A   Overcast
8:15 PM 59.9 °F 55.9 °F 87% 30.14 in 10.0 mi East 4.6 mph - N/A   Overcast
8:35 PM 58.8 °F 55.8 °F 90% 30.15 in 10.0 mi ENE 5.8 mph - N/A   Scattered Clouds
8:55 PM 59.0 °F 56.3 °F 91% 30.16 in 10.0 mi ENE 5.8 mph - N/A   Mostly Cloudy
9:18 PM 59.0 °F 55.4 °F 88% 30.15 in 10.0 mi ENE 8.1 mph - N/A   Overcast
9:30 PM 59.2 °F 56.3 °F 90% 30.15 in 10.0 mi ENE 8.1 mph - N/A   Overcast
9:55 PM 59.4 °F 56.7 °F 91% 30.15 in 10.0 mi East 5.8 mph - N/A   Overcast
10:15 PM 59.5 °F 56.5 °F 90% 30.17 in 10.0 mi ENE 6.9 mph - N/A   Overcast
10:35 PM 59.5 °F 56.3 °F 89% 30.17 in 10.0 mi East 5.8 mph - N/A   Overcast
10:55 PM 59.9 °F 56.1 °F 87% 30.17 in 10.0 mi ENE 4.6 mph - N/A   Overcast
11:15 PM 59.4 °F 56.1 °F 89% 30.15 in 10.0 mi East 6.9 mph - N/A   Overcast
11:35 PM 59.2 °F 56.1 °F 90% 30.14 in 10.0 mi ENE 10.4 mph - N/A   Overcast
11:55 PM 58.8 °F 55.9 °F 90% 30.13 in 10.0 mi ENE 10.4 mph - N/A   Overcast